Regional Weather Roundup
Issued by NWS Austin/San Antonio, TX

Home | Current Version | Previous Version | Text Only | Print | Product List | Glossary On
Versions: 1 2 3 4 5 6 7 8 9 10 11 12 13 14 15 16 17 18 19 20 21 22 23 24 25 26 27 28 29 30 31 32 33 34 35 36 37 38 39 40 41 42 43 44 45 46 47 48 49 50
000
ASUS44 KEWX 280112
RWREWX
SOUTH TEXAS REGIONAL WEATHER ROUNDUP
NATIONAL WEATHER SERVICE AUSTIN/SAN ANTONIO TX
800 PM CDT THU APR 27 2017

NOTE: "FAIR" INDICATED FEW OR NO CLOUDS BELOW 12,000 FEET WITH NO
SIGNIFICANT WEATHER AND/OR OBSTRUCTIONS TO VISIBILITY.

* - THESE STATIONS ARE NOT NWS OR FAA STATIONS...AND ARE NOT SUBJECT
    TO NWS AND FAA QUALITY CONTROL.

TXZ171-172-183>190-280200-
TEXAS HILL COUNTRY AND EDWARDS PLATEAU

CITY           SKY/WX    TMP DP  RH WIND       PRES   REMARKS
JUNCTION       CLEAR     80  50  34 S13G22    29.59R
*LLANO         CLOUDY    81  48  32 S10G17    29.61S
BURNET         CLOUDY    77  48  35 S9G20     29.62S
*HORSESHOE BAY CLOUDY    79  49  34 S8        29.60S
*KERRVILLE     CLOUDY    76  56  48 SE9       29.62F
*FREDERICKSBRG CLOUDY    76  49  37 S6        29.62F
*ROCKSPRINGS   CLEAR     75  54  46 S9        29.65S
*BOERNE STAGE  PTCLDY    77  54  44 S8G17     29.63S
*CASTROVILLE   PTCLDY    83  57  41 SE13      29.61S
HONDO          CLOUDY    83  60  45 SE13      29.58F
*UVALDE        CLOUDY    82  62  50 SE8       29.57F
DEL RIO        CLOUDY    85  58  39 SE14      29.52S
LAUGHLIN AFB   MOCLDY    84  61  45 SE14      29.53S
CARRIZO SPRGS  CLEAR     88  61  40 S18       29.54F
*EAGLE PASS    NOT AVBL
$$

TXZ173-191>194-202-209-217>225-228-280200-
CENTRAL AND SOUTH CENTRAL TEXAS

CITY           SKY/WX    TMP DP  RH WIND       PRES   REMARKS
GEORGETOWN     CLEAR     79  50  36 SE12G20   29.60F
AUSTIN/BERGSTM MOCLDY    78  55  44 SE8       29.60F
AUSTIN/MABRY   CLEAR     79  53  40 SE9G18    29.62S
*AUSTIN/EXEC   FAIR      73  55  53 S7        29.62S
*LAGO VISTA    CLEAR     77  51  39 S8G17     29.62F
SAN MARCOS     PTCLDY    75  57  53 S13       29.61F
NEW BRAUNFELS  PTCLDY    80  58  46 S14       29.60F
RANDOLPH AFB   PTCLDY    78  59  52 SE10      29.60F
PT SAN ANTONIO PTCLDY    81  60  47 SE14      29.58F
SAN ANTONIO    MOCLDY    82  56  40 SE15      29.60F
STINSON FIELD  PTCLDY    83  58  42 SE10      29.59S
*LA GRANGE     CLEAR     77  63  61 S8        29.61S
*GIDDINGS      CLEAR     74  57  54 SE3       29.63S
*GONZALES      CLEAR     78  65  64 SE9       29.62S
$$

TXZ163>164-176>182-195>201-210>213-226-227-235-280200-
SOUTHEAST TEXAS

CITY           SKY/WX    TMP DP  RH WIND       PRES   REMARKS
COLLEGE STN    CLEAR     74  56  53 SE7       29.63F
*BRYAN         CLEAR     72  55  53 SE8       29.64F
*CALDWELL      NOT AVBL
*CROCKETT      PTCLDY    72  54  53 SE8       29.67F
*BRENHAM       CLEAR     75  58  55 SE6       29.64F
HUNTSVILLE     CLEAR     76  51  41 VRB5      29.65F
CONROE         MOCLDY    72  56  57 SE7       29.66F
HOUSTON BUSH   CLOUDY    73  52  47 SE16      29.67F
HOUSTON HOBBY  PTCLDY    71  61  70 E8        29.69S
*HOUSTON SW AP CLEAR     70  60  70 SE5       29.70S
PEARLAND       CLEAR     74  61  63 E7        29.71R
HOUSTON HOOKS  CLEAR     75  50  41 SE9       29.66F
ELLINGTON FLD  PTCLDY    72  63  73 E6        29.70F
SUGAR LAND     CLEAR     75  60  59 SE12      29.67F
*HOUSTON EXEC  CLEAR     75  61  60 SE13      29.67F
*CLEVELAND MUN CLEAR     70  60  69 SE5       29.68F
*WHARTON       CLEAR     73  60  64 SE9       29.68S
*COLUMBUS      FAIR      75  63  65 S6        29.65F
*EAGLE LAKE    CLEAR     76  65  68 S7        29.65F
$$

TXZ214>216-236>238-280200-
THE UPPER TEXAS COAST

CITY           SKY/WX    TMP DP  RH WIND       PRES   REMARKS
*ORANGE        CLEAR     74  61  64 SE3       29.73S
PORT ARTHUR    CLEAR     71  60  68 SE8       29.71R
GALVESTON      CLEAR     73  66  78 E10       29.71R
ANGLETON       PTCLDY    73  65  75 E5        29.69S
*BAY CITY      CLEAR     73  65  74 SE8       29.69R
PALACIOS       CLOUDY    73  66  78 E8        29.68R
$$

TXZ229>234-239>247-280200-
TEXAS COASTAL BEND AND RIO GRANDE PLAINS

CITY           SKY/WX    TMP DP  RH WIND       PRES   REMARKS
VICTORIA       CLEAR     72  65  78 SE15      29.67R
*BEEVILLE      CLEAR     76  67  75 SE10      29.65R
ROCKPORT       CLOUDY    75  68  78 SE15      29.65S
*PORT ARANSAS  CLOUDY    74  68  81 SE13      29.65S
*PORT LAVACA   MOCLDY    73  69  87 CALM      29.68R
*INGLESIDE     CLOUDY    76  69  79 E8        29.65S
CORPUS CHRISTI CLOUDY    75  68  78 SE14      29.65S
CORPUS NAS     CLOUDY    76  70  82 SE14      29.65S
*ROBSTOWN      CLOUDY    77  67  73 SE14      29.65S
ALICE          MOCLDY    75  66  73 SE15      29.64R
KINGSVILLE NAS NOT AVBL
COTULLA        CLEAR     89  60  37 S12       29.57F
*FAITH RANCH   CLEAR     90  63  40 SE12G17   29.56S HX  90
LAREDO         CLEAR     89  67  47 SE14      29.57S HX  92
$$

TXZ248>255-280200-
DEEP SOUTH TEXAS

CITY           SKY/WX    TMP DP  RH WIND       PRES   REMARKS
BROWNSVILLE    CLOUDY    81  73  76 SE12      29.63S
PORT ISABEL    CLOUDY    79  74  84 E14       29.64R HAZE
*SOUTH PADRE   NOT AVBL
HARLINGEN      CLOUDY    79  74  84 E10       29.62S
*HEBBRONVILLE  MOCLDY    82  67  60 SE15G24   29.62R
MCALLEN        MOCLDY    85  71  63 E16       29.62S HX  90
*WESLACO       CLOUDY    82  71  68 SE10G16   29.61S
FALFURRIAS     CLOUDY    78  68  71 E9G16     29.63S
EDINBURG       CLOUDY    82  70  68 E13       29.62S
*ZAPATA        CLOUDY    88  64  45 E13       29.57S
$$

TXZ213>215-236>238-242>244-246-247-251-254-255-280200-
CMAN STATIONS

STATION/POSITION TIME  TEMP    WIND        PRES    WAVE
                       AIR SEA DIR/SP/G            HT/PER
                 (UTC) (F)     (DEG/KT/KT) (MB)    (FT/S)
SABINE PASS      0048   74 78  130/ 12/ 15 1007.7
SEA RIM ST PARK  0000   73     120/ 11/ 14 1006.7
NORTH JETTY/GLS  0048          110/ 13/ 15 1005.5
EAGLE POINT      0042   72 75  120/ 12/ 14 1005.8
MORGANS POINT    0048   72 75  120/  7/ 10 1005.7
MISSION/ARANSAS  0000   74                 1004.0
PORT O`CONNOR    0042   72     130/ 16/ 18 1004.1
PORT ARANSAS     0000   73 77  100/ 15/ 17 1004.1
MALAQUITE BEACH  0042   74 78  110/ 14/ 17 1004.3
BAFFIN BAY       0042   75 78   70/ 11/ 13 1004.1
PORT ISABEL      0042   79 81  170/  5/  7 1003.4
$$




USA.gov is the U.S. government's official web portal to all federal, state and local government web resources and services.